Time,TemperatureF,DewpointF,PressureIn,WindDirection,WindDirectionDegrees,WindSpeedMPH,WindSpeedGustMPH,Humidity,HourlyPrecipIn,Conditions,Clouds,dailyrainin,SoftwareType,DateUTC
2013-09-16 00:12:00,58.6,58.0,30.18,SE,146,0.0,-999.0,96,-99.99,,,0.00,weatherlink.com 1.10,2013-09-16 04:12:00,
2013-09-16 00:27:00,58.9,58.0,30.18,WNW,294,0.0,-999.0,96,-99.99,,,0.00,weatherlink.com 1.10,2013-09-16 04:27:00,
2013-09-16 00:42:00,59.0,58.0,30.18,SE,142,0.0,-999.0,96,-99.99,,,0.00,weatherlink.com 1.10,2013-09-16 04:42:00,
2013-09-16 00:57:00,59.2,58.0,30.18,SE,142,0.0,-999.0,96,-99.99,,,0.00,weatherlink.com 1.10,2013-09-16 04:57:00,
2013-09-16 01:12:00,59.3,58.0,30.18,WNW,292,0.0,-999.0,96,-99.99,,,0.00,weatherlink.com 1.10,2013-09-16 05:12:00,
2013-09-16 01:27:00,59.2,58.0,30.18,SE,130,0.0,-999.0,95,-99.99,,,0.00,weatherlink.com 1.10,2013-09-16 05:27:00,
2013-09-16 01:42:00,59.0,57.0,30.17,WNW,295,1.0,-999.0,94,-99.99,,,0.00,weatherlink.com 1.10,2013-09-16 05:42:00,
2013-09-16 01:57:00,59.3,57.0,30.17,WNW,300,0.0,-999.0,91,-99.99,,,0.00,weatherlink.com 1.10,2013-09-16 05:57:00,
2013-09-16 02:12:00,59.6,56.0,30.17,WNW,291,1.0,-999.0,87,-99.99,,,0.00,weatherlink.com 1.10,2013-09-16 06:12:00,
2013-09-16 02:27:00,60.2,56.0,30.17,WSW,258,0.0,-999.0,85,-99.99,,,0.00,weatherlink.com 1.10,2013-09-16 06:27:00,
2013-09-16 02:42:00,60.4,56.0,30.16,WSW,258,0.0,-999.0,84,-99.99,,,0.00,weatherlink.com 1.10,2013-09-16 06:42:00,
2013-09-16 02:57:00,60.4,55.0,30.16,WNW,289,2.0,-999.0,83,-99.99,,,0.00,weatherlink.com 1.10,2013-09-16 06:57:00,
2013-09-16 03:12:00,60.4,55.0,30.16,WNW,287,4.0,-999.0,82,-99.99,,,0.00,weatherlink.com 1.10,2013-09-16 07:12:00,
2013-09-16 03:27:00,60.9,55.0,30.15,West,276,1.0,-999.0,80,-99.99,,,0.00,weatherlink.com 1.10,2013-09-16 07:27:00,
2013-09-16 03:42:00,61.0,54.0,30.16,West,275,0.0,-999.0,79,-99.99,,,0.00,weatherlink.com 1.10,2013-09-16 07:42:00,
2013-09-16 03:57:00,61.2,54.0,30.15,West,263,1.0,-999.0,78,-99.99,,,0.00,weatherlink.com 1.10,2013-09-16 07:57:00,
2013-09-16 04:12:00,60.9,54.0,30.15,West,263,0.0,-999.0,79,-99.99,,,0.00,weatherlink.com 1.10,2013-09-16 08:12:00,
2013-09-16 04:27:00,60.5,54.0,30.15,West,261,0.0,-999.0,80,-99.99,,,0.00,weatherlink.com 1.10,2013-09-16 08:27:00,
2013-09-16 04:42:00,60.2,54.0,30.15,West,261,0.0,-999.0,79,-99.99,,,0.00,weatherlink.com 1.10,2013-09-16 08:42:00,
2013-09-16 04:57:00,60.2,54.0,30.15,West,261,3.0,-999.0,79,-99.99,,,0.00,weatherlink.com 1.10,2013-09-16 08:57:00,
2013-09-16 05:12:00,60.7,54.0,30.15,West,272,4.0,-999.0,78,-99.99,,,0.00,weatherlink.com 1.10,2013-09-16 09:12:00,
2013-09-16 05:27:00,60.9,54.0,30.15,NW,305,3.0,-999.0,78,-99.99,,,0.00,weatherlink.com 1.10,2013-09-16 09:27:00,
2013-09-16 05:42:00,61.0,54.0,30.15,West,271,1.0,-999.0,79,-99.99,,,0.00,weatherlink.com 1.10,2013-09-16 09:42:00,
2013-09-16 05:57:00,60.5,54.0,30.15,West,281,2.0,-999.0,80,-99.99,,,0.00,weatherlink.com 1.10,2013-09-16 09:57:00,
2013-09-16 06:12:00,60.4,55.0,30.15,NW,309,5.0,-999.0,81,-99.99,,,0.00,weatherlink.com 1.10,2013-09-16 10:12:00,
2013-09-16 06:27:00,59.9,55.0,30.16,NW,306,5.0,-999.0,83,-99.99,,,0.00,weatherlink.com 1.10,2013-09-16 10:27:00,
2013-09-16 06:42:00,59.8,55.0,30.16,WNW,291,4.0,-999.0,84,-99.99,,,0.00,weatherlink.com 1.10,2013-09-16 10:42:00,
2013-09-16 06:57:00,59.8,55.0,30.16,NW,311,5.0,-999.0,85,-99.99,,,0.00,weatherlink.com 1.10,2013-09-16 10:57:00,
2013-09-16 07:12:00,59.9,56.0,30.16,WNW,292,5.0,-999.0,86,-99.99,,,0.00,weatherlink.com 1.10,2013-09-16 11:12:00,
2013-09-16 07:27:00,59.9,56.0,30.16,NW,314,6.0,-999.0,86,-99.99,,,0.00,weatherlink.com 1.10,2013-09-16 11:27:00,
2013-09-16 07:42:00,60.2,56.0,30.17,WNW,282,9.0,-999.0,86,-99.99,,,0.00,weatherlink.com 1.10,2013-09-16 11:42:00,
2013-09-16 07:57:00,60.5,56.0,30.17,WNW,292,4.0,-999.0,86,-99.99,,,0.00,weatherlink.com 1.10,2013-09-16 11:57:00,
2013-09-16 08:12:00,60.5,56.0,30.16,WNW,294,4.0,-999.0,86,-99.99,,,0.00,weatherlink.com 1.10,2013-09-16 12:12:00,
2013-09-16 08:27:00,60.2,57.0,30.16,NW,309,4.0,-999.0,88,-99.99,,,0.00,weatherlink.com 1.10,2013-09-16 12:27:00,
2013-09-16 08:42:00,60.2,57.0,30.16,West,277,2.0,-999.0,88,-99.99,,,0.00,weatherlink.com 1.10,2013-09-16 12:42:00,
2013-09-16 08:57:00,60.7,57.0,30.17,WSW,241,6.0,-999.0,88,-99.99,,,0.00,weatherlink.com 1.10,2013-09-16 12:57:00,
2013-09-16 09:12:00,60.9,57.0,30.18,NW,319,2.0,-999.0,88,-99.99,,,0.00,weatherlink.com 1.10,2013-09-16 13:12:00,
2013-09-16 09:27:00,61.3,57.0,30.18,North,349,10.0,-999.0,87,-99.99,,,0.00,weatherlink.com 1.10,2013-09-16 13:27:00,
2013-09-16 09:42:00,62.0,58.0,30.17,West,280,2.0,-999.0,85,-99.99,,,0.00,weatherlink.com 1.10,2013-09-16 13:42:00,
2013-09-16 09:57:00,62.3,57.0,30.18,NNW,327,5.0,-999.0,84,-99.99,,,0.00,weatherlink.com 1.10,2013-09-16 13:57:00,
2013-09-16 10:12:00,62.0,58.0,30.18,West,275,4.0,-999.0,85,-99.99,,,0.00,weatherlink.com 1.10,2013-09-16 14:12:00,
2013-09-16 10:27:00,62.6,58.0,30.18,WNW,298,6.0,-999.0,85,-99.99,,,0.00,weatherlink.com 1.10,2013-09-16 14:27:00,
2013-09-16 10:42:00,63.7,59.0,30.18,WNW,300,2.0,-999.0,84,-99.99,,,0.00,weatherlink.com 1.10,2013-09-16 14:42:00,
2013-09-16 10:57:00,63.5,58.0,30.18,WNW,288,2.0,-999.0,83,-99.99,,,0.00,weatherlink.com 1.10,2013-09-16 14:57:00,
2013-09-16 11:12:00,63.2,58.0,30.18,WNW,290,6.0,-999.0,83,-99.99,,,0.00,weatherlink.com 1.10,2013-09-16 15:12:00,
2013-09-16 11:27:00,63.2,58.0,30.18,NW,311,5.0,-999.0,83,-99.99,,,0.00,weatherlink.com 1.10,2013-09-16 15:27:00,
2013-09-16 11:42:00,63.5,58.0,30.18,WNW,298,3.0,-999.0,82,-99.99,,,0.00,weatherlink.com 1.10,2013-09-16 15:42:00,
2013-09-16 11:57:00,63.9,58.0,30.18,WNW,284,6.0,-999.0,82,-99.99,,,0.00,weatherlink.com 1.10,2013-09-16 15:57:00,
2013-09-16 12:12:00,64.0,57.0,30.18,West,267,2.0,-999.0,79,-99.99,,,0.00,weatherlink.com 1.10,2013-09-16 16:12:00,
2013-09-16 12:27:00,64.0,57.0,30.18,WNW,286,0.0,-999.0,79,-99.99,,,0.00,weatherlink.com 1.10,2013-09-16 16:27:00,
2013-09-16 12:42:00,65.0,57.0,30.18,West,274,0.0,-999.0,76,-99.99,,,0.00,weatherlink.com 1.10,2013-09-16 16:42:00,
2013-09-16 12:58:00,66.1,58.0,30.17,NW,317,3.0,-999.0,74,-99.99,,,0.00,weatherlink.com 1.10,2013-09-16 16:58:00,
2013-09-16 13:13:00,67.3,60.0,30.17,West,277,1.0,-999.0,78,-99.99,,,0.00,weatherlink.com 1.10,2013-09-16 17:13:00,
2013-09-16 13:28:00,66.4,59.0,30.16,WNW,294,1.0,-999.0,76,-99.99,,,0.00,weatherlink.com 1.10,2013-09-16 17:28:00,
2013-09-16 13:43:00,64.8,59.0,30.17,NW,309,3.0,-999.0,80,-99.99,,,0.00,weatherlink.com 1.10,2013-09-16 17:43:00,
2013-09-16 13:58:00,64.5,59.0,30.17,NNW,335,0.0,-999.0,82,-99.99,,,0.00,weatherlink.com 1.10,2013-09-16 17:58:00,
2013-09-16 14:13:00,65.2,58.0,30.17,WNW,302,1.0,-999.0,78,-99.99,,,0.00,weatherlink.com 1.10,2013-09-16 18:13:00,
2013-09-16 14:28:00,65.3,58.0,30.16,West,271,2.0,-999.0,78,-99.99,,,0.00,weatherlink.com 1.10,2013-09-16 18:28:00,
2013-09-16 14:43:00,65.0,57.0,30.15,NW,310,2.0,-999.0,76,-99.99,,,0.00,weatherlink.com 1.10,2013-09-16 18:43:00,
2013-09-16 14:58:00,65.2,57.0,30.15,NW,321,1.0,-999.0,76,-99.99,,,0.00,weatherlink.com 1.10,2013-09-16 18:58:00,
2013-09-16 15:13:00,65.8,59.0,30.15,NW,306,2.0,-999.0,78,-99.99,,,0.00,weatherlink.com 1.10,2013-09-16 19:13:00,
2013-09-16 15:28:00,66.0,58.0,30.14,WNW,298,2.0,-999.0,74,-99.99,,,0.00,weatherlink.com 1.10,2013-09-16 19:28:00,
2013-09-16 15:43:00,66.3,58.0,30.14,West,265,4.0,-999.0,74,-99.99,,,0.00,weatherlink.com 1.10,2013-09-16 19:43:00,
2013-09-16 15:58:00,65.0,57.0,30.14,NW,316,4.0,-999.0,74,-99.99,,,0.00,weatherlink.com 1.10,2013-09-16 19:58:00,
2013-09-16 16:13:00,64.2,57.0,30.13,NNW,327,2.0,-999.0,77,-99.99,,,0.00,weatherlink.com 1.10,2013-09-16 20:13:00,
2013-09-16 16:28:00,65.0,58.0,30.14,WNW,292,4.0,-999.0,78,-99.99,,,0.00,weatherlink.com 1.10,2013-09-16 20:28:00,
2013-09-16 16:43:00,65.2,59.0,30.14,WNW,290,1.0,-999.0,79,-99.99,,,0.00,weatherlink.com 1.10,2013-09-16 20:43:00,
2013-09-16 16:58:00,64.8,59.0,30.14,WNW,290,2.0,-999.0,81,-99.99,,,0.00,weatherlink.com 1.10,2013-09-16 20:58:00,
2013-09-16 17:13:00,64.3,57.0,30.14,NW,324,2.0,-999.0,77,-99.99,,,0.00,weatherlink.com 1.10,2013-09-16 21:13:00,
2013-09-16 17:28:00,64.0,56.0,30.14,West,277,3.0,-999.0,76,-99.99,,,0.00,weatherlink.com 1.10,2013-09-16 21:28:00,
2013-09-16 17:43:00,63.5,57.0,30.15,WNW,302,4.0,-999.0,79,-99.99,,,0.00,weatherlink.com 1.10,2013-09-16 21:43:00,
2013-09-16 17:58:00,62.7,56.0,30.16,NW,313,3.0,-999.0,79,-99.99,,,0.00,weatherlink.com 1.10,2013-09-16 21:58:00,
2013-09-16 18:13:00,62.1,57.0,30.16,NW,306,3.0,-999.0,83,-99.99,,,0.00,weatherlink.com 1.10,2013-09-16 22:13:00,
2013-09-16 18:28:00,61.8,57.0,30.16,West,270,3.0,-999.0,84,-99.99,,,0.00,weatherlink.com 1.10,2013-09-16 22:28:00,
2013-09-16 18:43:00,61.5,57.0,30.16,NW,314,4.0,-999.0,84,-99.99,,,0.00,weatherlink.com 1.10,2013-09-16 22:43:00,
2013-09-16 18:58:00,61.2,57.0,30.17,NW,306,3.0,-999.0,86,-99.99,,,0.00,weatherlink.com 1.10,2013-09-16 22:58:00,
2013-09-16 19:13:00,60.9,57.0,30.17,WNW,298,2.0,-999.0,87,-99.99,,,0.00,weatherlink.com 1.10,2013-09-16 23:13:00,
2013-09-16 19:28:00,60.5,57.0,30.18,West,269,0.0,-999.0,88,-99.99,,,0.00,weatherlink.com 1.10,2013-09-16 23:28:00,
2013-09-16 19:43:00,60.1,56.0,30.18,WNW,296,2.0,-999.0,86,-99.99,,,0.00,weatherlink.com 1.10,2013-09-16 23:43:00,
2013-09-16 19:58:00,59.5,55.0,30.19,WNW,302,1.0,-999.0,86,-99.99,,,0.00,weatherlink.com 1.10,2013-09-16 23:58:00,
2013-09-16 20:13:00,58.9,55.0,30.20,NW,312,1.0,-999.0,88,-99.99,,,0.00,weatherlink.com 1.10,2013-09-17 00:13:00,
2013-09-16 20:28:00,58.3,55.0,30.21,NW,312,0.0,-999.0,89,-99.99,,,0.00,weatherlink.com 1.10,2013-09-17 00:28:00,
2013-09-16 20:43:00,57.8,55.0,30.22,NW,312,0.0,-999.0,90,-99.99,,,0.00,weatherlink.com 1.10,2013-09-17 00:43:00,
2013-09-16 20:58:00,57.3,55.0,30.22,NW,312,0.0,-999.0,92,-99.99,,,0.00,weatherlink.com 1.10,2013-09-17 00:58:00,
2013-09-16 21:13:00,56.9,55.0,30.22,NW,312,2.0,-999.0,93,-99.99,,,0.00,weatherlink.com 1.10,2013-09-17 01:13:00,
2013-09-16 21:27:00,56.7,55.0,30.23,NW,313,0.0,-999.0,93,-99.99,,,0.00,weatherlink.com 1.10,2013-09-17 01:27:00,
2013-09-16 21:43:00,56.9,55.0,30.24,NW,313,0.0,-999.0,93,-99.99,,,0.00,weatherlink.com 1.10,2013-09-17 01:43:00,
2013-09-16 21:58:00,56.9,55.0,30.24,NW,313,0.0,-999.0,93,-99.99,,,0.00,weatherlink.com 1.10,2013-09-17 01:58:00,
2013-09-16 22:13:00,56.6,55.0,30.25,NW,313,0.0,-999.0,93,-99.99,,,0.00,weatherlink.com 1.10,2013-09-17 02:13:00,
2013-09-16 22:28:00,56.5,55.0,30.25,NW,313,0.0,-999.0,93,-99.99,,,0.00,weatherlink.com 1.10,2013-09-17 02:28:00,
2013-09-16 22:43:00,56.2,55.0,30.24,NW,313,0.0,-999.0,94,-99.99,,,0.00,weatherlink.com 1.10,2013-09-17 02:43:00,
2013-09-16 22:58:00,55.9,54.0,30.25,NW,313,0.0,-999.0,94,-99.99,,,0.00,weatherlink.com 1.10,2013-09-17 02:58:00,
2013-09-16 23:13:00,55.4,54.0,30.25,NW,313,0.0,-999.0,94,-99.99,,,0.00,weatherlink.com 1.10,2013-09-17 03:13:00,
2013-09-16 23:28:00,54.7,53.0,30.25,WNW,295,1.0,-999.0,94,-99.99,,,0.00,weatherlink.com 1.10,2013-09-17 03:28:00,
2013-09-16 23:43:00,54.1,53.0,30.25,WNW,301,1.0,-999.0,95,-99.99,,,0.00,weatherlink.com 1.10,2013-09-17 03:43:00,
2013-09-16 23:58:00,53.6,53.0,30.25,ENE,74,0.0,-999.0,96,-99.99,,,0.00,weatherlink.com 1.10,2013-09-17 03:58:00,